GW5685 Weather Reports


time (UTC)temp
F
wind
direction
speed
knots
gust
knots
rain 1hr
in
rain 24hr
in
rain mn
in
humidity
%
barometer
mb
20260505171312 82 228 1.7 2.6 0.00 0.00 0.00 52 1019.0
20260505170808 81 128 1.7 2.6 0.00 0.00 0.00 54 1019.1
20260505170306 80 250 0.9 5.2 0.00 0.00 0.00 55 1019.1
20260505165801 80 245 1.7 2.6 0.00 0.00 0.00 54 1019.4
20260505165257 80 158 0.9 1.7 0.00 0.00 0.00 56 1019.5
20260505164753 80 86 0.0 1.7 0.00 0.00 0.00 57 1019.4
20260505164250 80 135 0.0 1.7 0.00 0.00 0.00 57 1019.5
20260505163748 80 321 1.7 2.6 0.00 0.00 0.00 54 1019.5
20260505163246 80 106 0.9 1.7 0.00 0.00 0.00 55 1019.4
20260505162743 81 41 0.9 2.6 0.00 0.00 0.00 55 1019.6
20260505162240 80 64 0.0 5.2 0.00 0.00 0.00 59 1019.5
20260505161737 81 242 1.7 6.1 0.00 0.00 0.00 53 1019.3
20260505161235 82 232 0.9 5.2 0.00 0.00 0.00 52 1019.4
20260505160732 82 78 1.7 3.5 0.00 0.00 0.00 55 1019.5
20260505160230 82 310 0.9 1.7 0.00 0.00 0.00 57 1019.3
20260505153209 80 2 3.5 5.2 0.00 0.00 0.00 54 1019.2
20260505152706 79 256 0.9 1.7 0.00 0.00 0.00 58 1019.2
20260505152202 79 138 1.7 6.1 0.00 0.00 0.00 60 1019.2
20260505151657 79 170 1.7 7.0 0.00 0.00 0.00 58 1019.3
20260505151155 79 317 2.6 2.6 0.00 0.00 0.00 58 1019.4
20260505150650 79 298 0.9 1.7 0.00 0.00 0.00 58 1019.5
20260505150148 80 169 3.5 5.2 0.00 0.00 0.00 56 1019.4
20260505140616 77 182 1.7 7.0 0.00 0.00 0.00 59 1019.3
20260505140113 78 145 4.3 7.8 0.00 0.00 0.00 61 1019.2
20260505125030 68 10 0.0 0.0 0.00 0.00 0.00 84 1019.0
20260505124526 67 10 0.0 0.0 0.00 0.00 0.00 86 1018.9
20260505124023 66 11 0.0 0.0 0.00 0.00 0.00 87 1018.8
20260505123519 65 11 0.0 0.0 0.00 0.00 0.00 87 1018.8
20260505123015 64 11 0.0 0.0 0.00 0.00 0.00 88 1019.3
20260505122513 64 11 0.0 0.0 0.00 0.00 0.00 89 1019.0
20260505122009 63 11 0.0 0.0 0.00 0.00 0.00 90 1019.1
20260505121506 63 11 0.0 0.0 0.00 0.00 0.00 91 1018.8
20260505121002 62 11 0.0 0.0 0.00 0.00 0.00 91 1018.6
20260505120459 62 11 0.0 0.0 0.00 0.00 0.00 91 1018.7
20260505115958 62 11 0.0 0.0 0.00 0.00 0.00 92 1018.5
20260505115454 61 11 0.0 0.0 0.00 0.00 0.00 92 1018.4
20260505114953 60 11 0.0 0.0 0.00 0.00 0.00 92 1018.7
20260505114449 60 11 0.0 0.0 0.00 0.00 0.00 93 1018.7
20260505113946 60 11 0.0 0.0 0.00 0.00 0.00 93 1018.7
20260505113442 59 11 0.0 0.0 0.00 0.00 0.00 94 1018.8
20260505112938 59 11 0.0 0.0 0.00 0.00 0.00 94 1018.3
20260505112436 59 11 0.0 0.0 0.00 0.00 0.00 94 1018.4
20260505111932 58 11 0.0 0.0 0.00 0.00 0.00 94 1018.4
20260505111432 58 11 0.0 0.0 0.00 0.00 0.00 94 1018.3
20260505110929 58 11 0.0 0.0 0.00 0.00 0.00 94 1018.2
20260505110425 58 11 0.0 0.0 0.00 0.00 0.00 94 1017.9
20260505101856 58 11 0.0 0.0 0.00 0.00 0.00 94 1018.2
20260505101351 58 11 0.0 0.0 0.00 0.00 0.00 94 1018.0
20260505100847 58 11 0.0 0.0 0.00 0.00 0.00 94 1017.8
20260505100344 58 11 0.0 0.0 0.00 0.00 0.00 94 1017.9
20260505095839 58 11 0.0 0.0 0.00 0.00 0.00 94 1017.7
20260505095337 58 11 0.0 0.0 0.00 0.00 0.00 94 1017.6
20260505094833 58 10 0.0 0.0 0.00 0.00 0.00 94 1017.4
20260505094330 58 11 0.0 0.0 0.00 0.00 0.00 93 1017.5
20260505093825 58 11 0.0 0.0 0.00 0.00 0.00 93 1017.7
20260505093324 59 11 0.0 0.0 0.00 0.00 0.00 93 1017.7
20260505092820 59 11 0.0 0.0 0.00 0.00 0.00 94 1017.6
20260505092319 59 11 0.0 0.0 0.00 0.00 0.00 93 1017.6
20260505091815 58 11 0.0 0.0 0.00 0.00 0.00 93 1017.5
20260505091314 58 11 0.0 0.0 0.00 0.00 0.00 93 1017.6
20260505090811 58 11 0.0 0.0 0.00 0.00 0.00 93 1017.4
20260505090309 58 11 0.0 0.0 0.00 0.00 0.00 93 1017.6
20260505085806 59 11 0.0 0.0 0.00 0.00 0.00 93 1017.6
20260505085305 59 11 0.0 0.0 0.00 0.00 0.00 93 1017.5
20260505084801 59 11 0.0 0.0 0.00 0.00 0.00 93 1017.6
20260505084300 59 11 0.0 0.0 0.00 0.00 0.00 93 1017.5
20260505083756 59 11 0.0 0.0 0.00 0.00 0.00 93 1017.5
20260505083253 59 11 0.0 0.0 0.00 0.00 0.00 93 1017.5
20260505082750 59 11 0.0 0.0 0.00 0.00 0.00 93 1017.3
20260505082247 59 11 0.0 0.0 0.00 0.00 0.00 93 1017.2
20260505081743 59 11 0.0 0.0 0.00 0.00 0.00 92 1017.3
20260505081240 59 11 0.0 0.0 0.00 0.00 0.00 92 1017.3
20260505080737 60 11 0.0 0.0 0.00 0.00 0.00 93 1017.6
20260505080232 60 11 0.0 0.0 0.00 0.00 0.00 93 1017.3
20260505075728 59 11 0.0 0.0 0.00 0.00 0.00 92 1017.5
20260505075226 60 11 0.0 0.0 0.00 0.00 0.00 92 1017.4
20260505074723 60 11 0.0 0.0 0.00 0.00 0.00 92 1017.7
20260505074220 60 11 0.0 0.0 0.00 0.00 0.00 92 1017.4
20260505073718 60 11 0.0 0.0 0.00 0.00 0.00 93 1017.7
20260505073215 60 11 0.0 0.0 0.00 0.00 0.00 92 1017.6
20260505072711 60 11 0.0 0.0 0.00 0.00 0.00 92 1017.5
20260505072208 60 11 0.0 0.0 0.00 0.00 0.00 92 1017.6
20260505071703 60 11 0.0 0.0 0.00 0.00 0.00 92 1017.2
20260505071201 60 11 0.0 0.0 0.00 0.00 0.00 91 1017.3
20260505070658 60 11 0.0 0.0 0.00 0.00 0.00 91 1017.4
20260505070154 61 11 0.0 0.0 0.00 0.00 0.00 91 1017.4
20260505065650 61 11 0.0 0.0 0.00 0.00 0.00 91 1017.7
20260505065147 61 11 0.0 0.0 0.00 0.00 0.00 91 1017.4
20260505064644 61 11 0.0 0.0 0.00 0.00 0.00 90 1017.7
20260505064142 61 11 0.0 0.0 0.00 0.00 0.00 90 1017.7
20260505063639 61 11 0.0 0.0 0.00 0.00 0.00 91 1018.1
20260505063136 61 11 0.0 0.0 0.00 0.00 0.00 91 1017.8
20260505062632 60 11 0.0 0.0 0.00 0.00 0.00 91 1018.0
20260505062129 60 11 0.0 0.0 0.00 0.00 0.00 91 1018.2
20260505061626 60 11 0.0 0.0 0.00 0.00 0.00 90 1018.0
20260505061125 61 11 0.0 0.0 0.00 0.00 0.00 90 1017.8
20260505060622 61 11 0.0 0.0 0.00 0.00 0.00 89 1017.8
20260505060118 61 11 0.0 0.0 0.00 0.00 0.00 88 1018.0
20260505055613 61 11 0.0 0.0 0.00 0.00 0.00 87 1017.9
20260505055110 61 11 0.0 0.0 0.00 0.00 0.00 86 1018.2
20260505054608 62 11 0.0 0.0 0.00 0.00 0.00 86 1018.0
20260505054106 62 11 0.0 0.0 0.00 0.00 0.00 86 1018.3
20260505053603 61 11 0.0 0.0 0.00 0.00 0.00 86 1018.3
20260505053059 62 11 0.0 0.0 0.00 0.00 0.00 85 1018.4
20260505052556 62 11 0.0 0.0 0.00 0.00 0.00 85 1018.5
20260505052054 62 11 0.0 0.0 0.00 0.00 0.00 85 1018.7
20260505051550 62 11 0.0 0.0 0.00 0.00 0.00 84 1018.7
20260505051048 62 11 0.0 0.0 0.00 0.00 0.00 84 1018.7
20260505050546 62 11 0.0 0.0 0.00 0.00 0.00 84 1018.8
20260505041514 63 11 0.0 0.0 0.00 0.00 0.00 81 1018.8
20260505041012 63 11 0.0 0.0 0.00 0.00 0.00 82 1018.9
20260505040509 63 11 0.0 0.0 0.00 0.00 0.00 82 1018.9
20260505040006 63 11 0.0 0.0 0.00 0.00 0.00 82 1018.8
20260505035501 63 11 0.0 0.0 0.00 0.00 0.00 82 1019.0
20260505034959 63 11 0.0 0.0 0.00 0.00 0.00 81 1018.8
20260505034455 63 11 0.0 0.0 0.00 0.00 0.00 80 1018.8
20260505033952 64 11 0.0 0.0 0.00 0.00 0.00 81 1019.0
20260505033449 64 11 0.0 0.0 0.00 0.00 0.00 80 1019.1
20260505032947 64 11 0.0 0.0 0.00 0.00 0.00 81 1019.2
20260505032444 64 11 0.0 0.0 0.00 0.00 0.00 80 1019.0
20260505031940 64 11 0.0 0.0 0.00 0.00 0.00 80 1019.3
20260505031438 64 11 0.0 0.0 0.00 0.00 0.00 79 1019.4
20260505030934 64 11 0.0 0.0 0.00 0.00 0.00 79 1019.5
20260505030430 64 11 0.0 0.0 0.00 0.00 0.00 79 1019.3
20260505025926 64 11 0.0 0.0 0.00 0.00 0.00 81 1019.3
20260505025423 64 11 0.0 0.0 0.00 0.00 0.00 79 1019.4
20260505024922 64 11 0.0 0.0 0.00 0.00 0.00 79 1019.3
20260505024419 64 11 0.0 0.0 0.00 0.00 0.00 78 1019.1
20260505023916 64 11 0.0 0.0 0.00 0.00 0.00 80 1019.3
20260505023413 64 11 0.0 0.0 0.00 0.00 0.00 79 1019.2
20260505022910 65 11 0.0 0.0 0.00 0.00 0.00 79 1019.2
20260505022408 65 11 0.0 0.0 0.00 0.00 0.00 79 1019.1
20260505021905 65 11 0.0 0.0 0.00 0.00 0.00 77 1019.5
20260505021401 65 11 0.0 0.0 0.00 0.00 0.00 79 1018.9
20260505020857 65 11 0.0 0.0 0.00 0.00 0.00 77 1019.3
20260505020353 65 11 0.0 0.0 0.00 0.00 0.00 77 1019.2
20260505015850 65 11 0.0 0.0 0.00 0.00 0.00 76 1019.2
20260505015347 65 11 0.0 0.0 0.00 0.00 0.00 77 1019.2
20260505014844 65 11 0.0 0.0 0.00 0.00 0.00 78 1019.2
20260505014341 66 11 0.0 0.0 0.00 0.00 0.00 76 1018.8
20260505013837 66 11 0.0 0.0 0.00 0.00 0.00 76 1019.1
20260505013334 66 11 0.0 0.0 0.00 0.00 0.00 76 1018.8
20260505012833 66 12 0.0 0.0 0.00 0.00 0.00 75 1018.9
20260505012331 66 12 0.0 0.0 0.00 0.00 0.00 74 1018.8
20260505011826 67 12 0.0 0.0 0.00 0.00 0.00 74 1018.6
20260505011323 67 12 0.0 0.0 0.00 0.00 0.00 74 1018.7
20260505010819 67 12 0.0 0.0 0.00 0.00 0.00 74 1018.6
20260505010315 67 13 0.0 0.0 0.00 0.00 0.00 71 1018.5
20260505005812 67 13 0.0 0.0 0.00 0.00 0.00 71 1018.4
20260505005309 68 13 0.0 0.0 0.00 0.00 0.00 70 1018.6
20260505004806 68 12 0.0 0.0 0.00 0.00 0.00 71 1018.6
20260505004302 68 13 0.0 0.0 0.00 0.00 0.00 70 1018.9
20260505003800 69 13 0.0 0.0 0.00 0.00 0.00 69 1018.4
20260505003257 69 13 0.0 0.0 0.00 0.00 0.00 67 1018.6
20260505002753 69 12 0.0 0.0 0.00 0.00 0.00 68 1018.4
20260505002251 70 13 0.0 0.9 0.00 0.00 0.00 66 1018.4
20260505001748 70 108 0.0 0.9 0.00 0.00 0.00 64 1018.2
20260505001245 71 112 0.0 0.0 0.00 0.00 0.00 63 1018.2
20260505000742 71 111 0.0 0.0 0.00 0.00 0.00 65 1018.1
20260505000240 72 111 0.0 0.0 0.00 0.00 0.00 63 1018.2
20260504235736 73 92 0.0 0.9 0.00 0.00 0.00 60 1018.4
20260504235233 74 92 0.9 2.6 0.00 0.00 0.00 57 1018.1
20260504234730 74 229 0.0 0.9 0.00 0.00 0.00 58 1017.7
20260504234227 74 86 0.9 0.9 0.00 0.00 0.00 58 1018.0
20260504233724 75 90 0.9 2.6 0.00 0.00 0.00 57 1017.9
20260504233219 76 168 0.9 1.7 0.00 0.00 0.00 54 1017.8
20260504232717 76 89 0.9 3.5 0.00 0.00 0.00 54 1017.9
20260504232214 76 241 0.0 1.7 0.00 0.00 0.00 55 1018.0
20260504231710 76 108 0.9 1.7 0.00 0.00 0.00 59 1017.7
20260504231207 76 189 0.0 2.6 0.00 0.00 0.00 53 1017.7
20260504230703 77 85 1.7 3.5 0.00 0.00 0.00 54 1017.7
20260504230202 76 166 2.6 2.6 0.00 0.00 0.00 53 1017.8
20260504225700 77 113 0.9 5.2 0.00 0.00 0.00 54 1017.6
20260504225155 77 296 0.9 5.2 0.00 0.00 0.00 55 1017.7
20260504224653 78 56 0.9 5.2 0.00 0.00 0.00 53 1018.0
20260504224149 78 214 1.7 2.6 0.00 0.00 0.00 53 1017.8
20260504223647 78 296 1.7 2.6 0.00 0.00 0.00 54 1017.6
20260504223142 77 238 1.7 3.5 0.00 0.00 0.00 52 1018.0
20260504222639 78 330 1.7 5.2 0.00 0.00 0.00 52 1017.8
20260504222136 78 221 0.0 1.7 0.00 0.00 0.00 53 1017.7
20260504221634 78 95 1.7 2.6 0.00 0.00 0.00 52 1017.7
20260504221131 79 327 3.5 5.2 0.00 0.00 0.00 54 1017.7
20260504220627 79 146 0.9 2.6 0.00 0.00 0.00 52 1017.7
20260504220125 78 130 0.9 1.7 0.00 0.00 0.00 51 1017.8
20260504215620 78 327 1.7 5.2 0.00 0.00 0.00 51 1018.0
20260504215118 78 304 0.9 5.2 0.00 0.00 0.00 54 1017.9
20260504214614 78 303 1.7 1.7 0.00 0.00 0.00 54 1017.9
20260504214110 78 196 0.9 7.0 0.00 0.00 0.00 52 1017.8
20260504213607 79 217 0.0 2.6 0.00 0.00 0.00 54 1018.0
20260504213104 79 259 0.9 3.5 0.00 0.00 0.00 54 1017.7
20260504212600 79 179 1.7 3.5 0.00 0.00 0.00 53 1017.8
20260504212057 78 81 0.0 3.5 0.00 0.00 0.00 52 1017.8
20260504211554 78 147 2.6 7.8 0.00 0.00 0.00 52 1017.9
20260504211051 78 189 0.9 2.6 0.00 0.00 0.00 52 1017.7
20260504210548 78 131 1.7 3.5 0.00 0.00 0.00 52 1017.8
20260504210045 79 127 1.7 5.2 0.00 0.00 0.00 51 1017.7
20260504205543 79 234 0.9 2.6 0.00 0.00 0.00 52 1018.0
20260504205040 78 256 0.9 2.6 0.00 0.00 0.00 56 1017.9
20260504204538 78 302 0.9 1.7 0.00 0.00 0.00 55 1018.0
20260504204037 79 207 3.5 6.1 0.00 0.00 0.00 54 1017.7
20260504203534 79 342 0.9 3.5 0.00 0.00 0.00 55 1018.0
20260504203032 79 216 2.6 3.5 0.00 0.00 0.00 52 1017.8
20260504202527 79 326 3.5 5.2 0.00 0.00 0.00 51 1018.0
20260504202024 80 163 5.2 6.1 0.00 0.00 0.00 50 1018.2
20260504201521 79 225 1.7 2.6 0.00 0.00 0.00 52 1018.1
20260504201019 79 94 1.7 6.1 0.00 0.00 0.00 54 1018.2
20260504200515 80 343 3.5 5.2 0.00 0.00 0.00 51 1018.4
20260504200012 79 340 0.9 6.1 0.00 0.00 0.00 55 1018.1
20260504195508 79 328 3.5 6.1 0.00 0.00 0.00 51 1018.2
20260504195005 80 160 3.5 7.0 0.00 0.00 0.00 52 1018.3
20260504194501 79 28 1.7 3.5 0.00 0.00 0.00 52 1018.3
20260504193956 79 94 1.7 7.0 0.00 0.00 0.00 53 1018.3
20260504193454 78 120 3.5 6.1 0.00 0.00 0.00 56 1018.2
20260504192953 79 351 1.7 6.1 0.00 0.00 0.00 54 1018.4
20260504192449 80 143 1.7 5.2 0.00 0.00 0.00 54 1018.6
20260504191949 79 175 0.0 3.5 0.00 0.00 0.00 52 1018.5
20260504191446 78 68 3.5 7.0 0.00 0.00 0.00 58 1018.5
20260504190941 79 156 2.6 3.5 0.00 0.00 0.00 54 1018.5
20260504190437 78 170 1.7 3.5 0.00 0.00 0.00 55 1018.7
20260504185934 78 354 2.6 2.6 0.00 0.00 0.00 53 1019.0
20260504185431 80 17 2.6 6.1 0.00 0.00 0.00 52 1018.6
20260504184927 80 348 4.3 7.0 0.00 0.00 0.00 50 1019.0
20260504184423 80 331 0.9 2.6 0.00 0.00 0.00 51 1019.0
20260504183919 79 274 0.9 2.6 0.00 0.00 0.00 52 1019.2
20260504183417 78 96 2.6 7.0 0.00 0.00 0.00 53 1019.5
20260504182914 79 196 1.7 9.6 0.00 0.00 0.00 55 1019.1
20260504182411 78 216 2.6 3.5 0.00 0.00 0.00 51 1019.3
20260504181908 79 156 3.5 6.1 0.00 0.00 0.00 51 1019.3
20260504181405 78 73 1.7 5.2 0.00 0.00 0.00 52 1019.3
20260504180904 79 275 0.9 1.7 0.00 0.00 0.00 55 1019.4
20260504180402 79 96 1.7 3.5 0.00 0.00 0.00 52 1019.5
20260504175900 78 167 3.5 3.5 0.00 0.00 0.00 51 1019.4
20260504175356 78 310 2.6 5.2 0.00 0.00 0.00 52 1019.5
20260504174855 78 87 0.9 3.5 0.00 0.00 0.00 51 1019.4
20260504174352 79 181 3.5 3.5 0.00 0.00 0.00 51 1019.4
20260504173849 79 232 0.9 3.5 0.00 0.00 0.00 50 1019.3
20260504173345 79 314 6.1 11.3 0.00 0.00 0.00 49 1019.6
20260504172843 79 239 0.0 3.5 0.00 0.00 0.00 51 1019.6
20260504172339 80 165 3.5 5.2 0.00 0.00 0.00 50 1019.5
20260504171835 79 207 0.9 5.2 0.00 0.00 0.00 52 1019.6